Location: Aldealcorvo
(41.2444°N, 3.7914°W)
Time: 19:51:05
(UTC+00:00)

Daily predictions for brighter satellites

Satellite Brightness Start Highest point End
(mag) Time Altitude Azimuth Time Altitude Azimuth Time Altitude Azimuth
CORIOLIS 4.3 17:13:22 10° SSE 17:18:33 54° ENE 17:23:46 10° N
IRS-1C 4.5 17:15:08 10° SE 17:20:07 43° ENE 17:25:08 10° N
SL-12 R/B(2) 4.3 17:15:27 10° SSW 17:23:06 76° ESE 17:32:25 10° NE
Cosmos 1943 Rocket 2.2 17:21:36 10° S 17:27:08 64° ESE 17:32:39 10° NNE
Thor Agena Rocket 3.6 17:21:57 10° SSE 17:27:13 84° ENE 17:32:31 10° NNW
Timation 2 Rocket 4.2 17:21:29 10° SSW 17:28:19 73° ESE 17:35:09 10° NNE
Cosmos 1782 Rocket 4.0 17:24:00 10° SSW 17:28:25 67° W 17:32:49 10° N
COSMO-SKYMED 1 4.2 17:28:03 10° ENE 17:30:05 13° E 17:32:08 10° ESE
Cosmos 2233 Rocket 4.2 17:23:49 10° S 17:30:06 80° W 17:36:28 10° N
Cosmos 1300 Rocket 4.4 17:26:34 10° SSW 17:30:52 55° W 17:35:10 10° N
Cosmos 2251 Rocket 4.0 17:26:27 10° S 17:31:20 40° ESE 17:36:16 10° NE
BREEZE-M DEB (TANK) 2.6 17:33:22 10° W 17:35:33 42° NNW 17:39:48 10° ENE
Cosmos 2058 3.8 17:32:24 10° NNE 17:35:42 24° ENE 17:38:57 10° SE
Cosmos 2061 Rocket 4.3 17:31:32 10° SSW 17:37:49 77° W 17:44:06 10° N
ATLAS 2AS CENTAUR R/B 4.3 17:35:03 10° N 17:38:35 14° NNE 17:42:07 10° NE
Cosmos 2082 Rocket 2.8 17:34:51 10° N 17:39:54 33° ENE 17:44:54 10° ESE
Cosmos 2278 Rocket 2.2 17:34:57 10° SSW 17:40:36 79° ESE 17:46:17 10° NNE
SAR-Lupe-1 4.0 17:38:48 10° SSE 17:42:17 60° ENE 17:45:50 10° N
MOS 1 Rocket 3.7 17:39:57 10° SE 17:43:52 35° ENE 17:47:57 10° N
Cosmos 1602 4.0 17:44:17 10° NNE 17:46:58 27° ENE 17:49:39 10° SE
AQUARIUS 4.2 17:42:48 10° SSE 17:47:04 52° ENE 17:51:21 10° N
Cosmos 1464 Rocket 4.4 17:41:46 10° SSE 17:47:34 41° E 17:53:21 10° NNE
ARIANE 5 R/B 2.4 17:43:46 10° SSE 17:48:43 78° ENE 17:53:43 10° N
Cosmos 468 Rocket 4.4 17:44:28 10° N 17:49:21 39° ENE 17:54:09 10° SE
Cosmos 1975 Rocket 3.3 17:45:22 10° NNW 17:49:42 73° W 17:54:04 10° S
CZ-2D R/B 4.4 17:46:17 10° SE 17:49:44 26° ENE 17:53:14 10° NNE
Cosmos 2369 Rocket 4.0 17:49:36 10° ESE 17:50:09 10° E 17:50:09 10° E
SAR-Lupe-4 3.6 17:48:26 10° SSE 17:52:00 84° WSW 17:55:35 10° NNW
USA 215 3.2 17:48:08 10° ESE 17:54:37 71° NE 18:01:08 10° NW
ATLAS 5 CENTAUR R/B 3.1 17:51:06 10° NW 17:55:38 48° WSW 18:01:10 10° SSE
Cosmos 1862 3.9 17:54:57 10° NNE 17:58:08 29° ENE 18:01:21 10° SE
Cosmos 2151 Rocket 3.9 17:54:00 10° SSE 17:58:14 44° E 18:02:30 10° NNE
Cosmos 1190 Rocket 4.0 17:53:52 10° S 17:59:04 61° ESE 18:04:18 10° NNE
CZ-2D R/B 2.8 17:56:49 10° S 17:59:57 77° WSW 18:03:07 10° NNW
ISS -2.0 17:58:58 10° W 18:01:46 24° NNW 18:03:52 14° NNE
Cosmos 1812 1.9 17:59:39 10° S 18:02:31 85° W 18:05:26 10° N
OAO 3 Rocket 4.1 17:59:43 10° WSW 18:04:04 38° S 18:07:35 14° ESE
Cosmos 1656 Rocket 4.4 18:00:06 10° SSE 18:04:51 30° ESE 18:07:59 18° NE
Okean 1 Rocket 3.7 18:01:04 10° SSE 18:04:58 32° E 18:08:25 12° NNE
Cosmos 407 Rocket 4.4 18:04:30 10° SW 18:09:31 49° WNW 18:14:31 10° N
SKYMED 2 3.6 18:05:37 10° NNE 18:09:54 55° E 18:14:09 10° S
Sich 1 Rocket 4.1 18:06:29 10° SSE 18:10:41 38° E 18:14:54 10° NNE
Cosmos 1954 Rocket 4.0 18:06:17 10° S 18:11:29 64° ESE 18:16:41 10° NNE
IRS-P3 4.1 18:07:44 10° SSE 18:13:03 90° ENE 18:18:25 10° NNW
BlueWalker 3 2.8 18:11:45 10° SSW 18:14:57 30° SE 18:15:39 27° ESE
COSMOS 2406 3.8 18:10:26 10° N 18:15:36 35° ENE 18:19:01 19° ESE
SL-19 R/B 4.4 18:12:08 10° SE 18:16:59 42° ENE 18:21:53 10° N
SMAP 4.4 18:13:20 10° S 18:17:44 41° W 18:22:09 10° NNW
Cosmos 968 Rocket 4.4 18:15:50 10° SSE 18:20:02 26° E 18:20:21 26° E
SJ 16-02 1.2 18:16:30 10° SSW 18:20:48 81° ESE 18:24:28 14° NNE
Cosmos 1072 Rocket 4.4 18:15:04 10° S 18:21:13 83° E 18:27:21 10° N
Cosmos 44 Rocket 4.3 18:17:07 10° SW 18:21:38 43° NW 18:26:14 11° NNE
YAOGAN 1 2.8 18:18:37 10° SE 18:22:39 44° ENE 18:26:43 10° N
Cosmos 2026 Rocket 4.5 18:17:51 10° N 18:23:21 34° ENE 18:28:54 10° SE
OAO 2 Rocket 4.4 18:19:11 10° WSW 18:23:46 37° S 18:27:11 17° SE
SPOT 1/Viking Rocket 3.4 18:19:11 10° SSE 18:24:18 69° ENE 18:29:28 10° N
Cosmos 540 Rocket 4.0 18:22:17 10° NNW 18:27:20 59° WSW 18:32:19 10° S
BREEZE M DEB (TANK) 4.4 18:27:26 10° S 18:28:15 13° SSE 18:28:15 13° SSE
Cosmos 2344 4.3 18:25:32 10° NNW 18:33:07 43° NE 18:38:34 25° E
Spot 4 Rocket 3.9 18:30:01 10° SSE 18:35:03 71° ENE 18:40:09 10° N
DELTA 2 R/B (1) 4.2 18:31:10 10° SW 18:36:23 43° SSE 18:38:13 32° ESE
RESURS DK-1 3.9 18:33:17 10° NW 18:36:58 36° WSW 18:40:38 10° S
Resurs 1-3 3.5 18:32:54 10° SSE 18:37:08 61° ENE 18:41:23 10° N
Meteor 2-3 Rocket 3.9 18:33:46 10° N 18:39:16 48° ENE 18:44:40 10° SSE
Cosmos 1400 Rocket 3.1 18:39:06 10° SSW 18:42:52 60° WNW 18:45:47 16° N
Cosmos 304 Rocket 3.9 18:40:52 10° SSW 18:45:34 73° WNW 18:48:46 21° NNE
Nadezhda 4 Rocket 4.0 18:39:33 10° N 18:45:52 87° W 18:52:04 10° S
Cosmos 371 Rocket 3.4 18:42:38 10° SSW 18:47:24 74° WNW 18:50:35 21° NNE
Helios 1A Rocket 2.8 18:50:28 49° NNW 18:51:05 60° WNW 18:54:24 10° SSW
Cosmos 1536 Rocket 4.0 18:47:15 10° NNW 18:51:37 62° W 18:55:55 10° S
Okean 2 Rocket 3.6 18:48:25 10° SSW 18:52:45 59° W 18:57:05 10° N
Cosmos 1627 Rocket 4.4 18:50:10 10° N 18:56:14 60° E 19:02:19 10° SSE
Cosmos 2195 Rocket 4.4 18:53:27 10° N 18:59:48 81° E 19:06:09 10° S
NOAA 6 3.9 18:58:10 10° SSE 19:03:19 84° ENE 19:08:29 10° NNW
COSMO-SKYMED 1 3.3 19:03:10 21° N 19:05:40 48° WNW 19:09:38 10° SSW
ATLAS 2A CENTAUR R/B 4.5 19:00:27 10° WSW 19:08:41 21° SSW 19:10:52 17° SSE
BREEZE-M DEB (TANK) 4.4 19:07:54 10° WNW 19:11:09 40° N 19:11:48 38° NNE
Cosmos 1943 Rocket 4.4 19:07:13 10° W 19:11:19 20° NW 19:15:26 10° N
BREEZE-M DEB (TANK) 3.8 18:58:40 10° WNW 19:11:35 84° NNE 19:12:27 65° E
Cosmos 841 Rocket 3.6 19:11:41 10° NNW 19:16:55 72° WSW 19:19:04 36° S
DMSP B5D1-3 4.4 19:20:18 83° WSW 19:20:18 83° WSW 19:25:18 10° SSW
Cosmos 2082 Rocket 3.6 19:18:52 10° NW 19:23:56 36° WSW 19:28:59 10° S
ATLAS 2AS CENTAUR R/B 3.4 19:24:56 10° NNW 19:29:41 38° N 19:29:41 38° N
Cosmos 1634 Rocket 3.9 19:26:49 10° S 19:33:06 82° W 19:34:50 51° N
Cosmos 2369 Rocket 2.7 19:28:03 10° SSW 19:32:00 48° SSW 19:32:00 48° SSW
Cosmos 2297 4.3 19:29:35 10° SSW 19:33:36 48° SSW 19:33:36 48° SSW
USA 281 4.1 19:58:22 39° NNW 19:58:22 39° NNW 20:02:17 10° NNW
SJ 16-02 4.4 19:58:53 10° WNW 19:59:30 10° NW 20:00:08 10° NW
